User: anonymous   Login
Location: Radford
(37.1320°N, 80.5770°W)
Time: 01:49:59
(UTC-04:00)
Language:

Okean 1-7 - Orbit

View from above orbital plane
View from above orbital plane
View from above satellite
View from above satellite

Ground track
Ground track

The orbit data is extracted from the following two-line orbital elements,

1 23317U 94066A   15245.90450975 +.00000543 +00000-0 +57918-4 0  9993
2 23317 082.5397 012.4156 0021552 073.7506 048.1628 14.86801783128853
Epoch (UTC): 02 September 2015 21:42:29
Eccentricity: 0.0021552
inclination: 82.5397°
perigee height: 593 km
apogee height: 623 km
right ascension of ascending node: 12.4156°
argument of perigee: 73.7506°
revolutions per day: 14.86801783
mean anomaly at epoch: 48.1628°
orbit number at epoch: 12885

The dashed part of the orbit path shows where the satellite is in the earth's shadow,  

DLR